"Time","Temp","Dewpoint","Humidity","Pressure","Direction","Speed","Gust","Precip","PrecipRate"
"00:04:57","55.1","49.4","81.1","30.32","332","1.9","6","0.00","0.00"
"00:09:58","55","49.6","82","30.32","329","2","7.2","0.00","0.00"
"00:14:57","54.9","49.5","82","30.32","310","1.6","6","0.00","0.00"
"00:19:59","54.8","49.4","82","30.32","297","1.1","3.6","0.00","0.00"
"00:24:57","54.7","49.3","82","30.32","301","1.3","4.8","0.00","0.00"
"00:29:58","54.5","49.4","83","30.32","307","0.9","2.4","0.00","0.00"
"00:34:56","54.4","49.3","83","30.32","323","1.3","7.2","0.00","0.00"
"00:39:59","54.4","49.5","83.4","30.32","353","1.5","6.9","0.00","0.00"
"00:44:57","54.4","49.3","83","30.32","349","1.4","3.6","0.00","0.00"
"00:49:59","54.4","49.5","83.5","30.32","338","1.7","7.2","0.00","0.00"
"00:54:56","54.3","49.4","83.5","30.32","325","1.6","6","0.00","0.00"
"00:59:58","54.2","49.5","84","30.32","311","0.9","3.6","0.00","0.00"
"01:04:56","54.1","49.4","84","30.32","311","0.8","3.6","0.00","0.00"
"01:09:59","53.9","49.2","84","30.32","317","1","4.8","0.00","0.00"
"01:14:59","53.8","49.2","84.5","30.32","350","0.4","4.6","0.00","0.00"
"01:19:57","53.6","49.2","84.9","30.32","350","1.2","4.8","0.00","0.00"
"01:24:58","53.4","49","85","30.32","350","1.1","4.6","0.00","0.00"
"01:29:56","53.3","49","85.3","30.33","349","0.8","3.6","0.00","0.00"
"01:34:58","53.1","49","86","30.33","344","0.9","4.8","0.00","0.00"
"01:39:57","52.9","48.8","86.2","30.33","338","1.2","4.8","0.00","0.00"
"01:44:59","52.8","48.9","86.6","30.33","336","1.8","4.8","0.00","0.00"
"01:49:57","52.7","48.9","87","30.32","336","1","4.8","0.00","0.00"
"01:54:59","52.6","48.8","87","30.32","333","1.4","4.8","0.00","0.00"
"01:59:57","52.6","48.8","87","30.33","334","1.4","3.6","0.00","0.00"
"02:04:59","52.5","48.7","87","30.33","334","0.4","3.6","0.00","0.00"
"02:09:59","52.4","48.6","87.2","30.33","334","0.3","2.4","0.00","0.00"
"02:14:58","52.3","48.9","88","30.33","334","0.3","2.4","0.00","0.00"
"02:19:56","52.1","48.7","88","30.33","334","0.2","1.2","0.00","0.00"
"02:24:58","51.9","48.5","88","30.33","334","0.3","2.4","0.00","0.00"
"02:29:56","51.7","48.5","88.4","30.33","334","0.4","2.4","0.00","0.00"
"02:34:58","51.6","48.5","89","30.33","334","0.3","2.4","0.00","0.00"
"02:39:58","51.5","48.4","89","30.33","334","0.6","3.6","0.00","0.00"
"02:44:56","51.5","48.6","89.9","30.34","334","0.7","3.5","0.00","0.00"
"02:49:57","51.4","48.6","89.8","30.34","334","0.3","2.4","0.00","0.00"
"02:54:59","51.3","48.3","89.3","30.34","334","0.3","2.4","0.00","0.00"
"02:59:56","51.2","48.4","90","30.34","334","0.4","2.4","0.00","0.00"
"03:04:59","51.1","48.3","90","30.34","334","1.1","4.8","0.00","0.00"
"03:09:59","51.1","48.3","90","30.34","334","0.3","3.6","0.00","0.00"
"03:14:59","51","48.5","90.7","30.34","334","0.8","3.5","0.00","0.00"
"03:19:56","51","48.2","90","30.34","334","0","1.2","0.00","0.00"
"03:24:59","50.9","48.1","90","30.34","334","0","0","0.00","0.00"
"03:29:57","50.8","48","90","30.35","334","0.1","1.2","0.00","0.00"
"03:34:59","50.6","48","90.4","30.35","334","0.1","1.2","0.00","0.00"
"03:39:59","50.5","48","91","30.35","334","0","0","0.00","0.00"
"03:44:57","50.3","47.8","91","30.35","334","0","0","0.00","0.00"
"03:49:59","50.2","47.7","91","30.35","334","0","1.2","0.00","0.00"
"03:54:57","50","47.5","91","30.35","334","0.1","1.2","0.00","0.00"
"03:59:59","49.9","47.4","91","30.35","334","0","1.2","0.00","0.00"
"04:04:58","49.7","47.2","91","30.35","334","0","0","0.00","0.00"
"04:09:57","49.6","47.2","91.4","30.35","334","0","0","0.00","0.00"
"04:14:57","49.4","47.1","91.7","30.35","334","0","0","0.00","0.00"
"04:19:57","49.3","47.1","92","30.35","334","0","0","0.00","0.00"
"04:24:59","49.2","47","92","30.35","334","0","0","0.00","0.00"
"04:29:57","49.1","47","92.5","30.35","334","0","0","0.00","0.00"
"04:34:59","49","46.8","92.1","30.35","334","0","0","0.00","0.00"
"04:39:58","48.9","47","93","30.35","334","0.2","2.4","0.00","0.00"
"04:44:57","48.8","46.9","93","30.35","334","0.1","1.2","0.00","0.00"
"04:49:58","48.7","46.8","93","30.35","334","0","1.2","0.00","0.00"
"04:54:56","48.6","46.7","93","30.35","334","0.2","1.2","0.00","0.00"
"04:59:57","48.7","46.8","93.2","30.35","334","0.7","2.4","0.00","0.00"
"05:04:59","48.7","47.1","94","30.35","334","0.4","3.6","0.00","0.00"
"05:09:58","48.8","47.2","94","30.35","334","0.3","2.4","0.00","0.00"
"05:14:58","48.8","47.1","93.7","30.35","334","0.1","2.3","0.00","0.00"
"05:19:59","48.7","46.8","93","30.35","334","0","0","0.00","0.00"
"05:24:57","48.7","46.9","93.5","30.35","334","0.1","1.2","0.00","0.00"
"05:29:59","48.7","47.1","94","30.35","334","0.3","2.4","0.00","0.00"
"05:34:56","48.7","47.1","94","30.35","334","0.4","3.6","0.00","0.00"
"05:39:59","48.7","47.1","94","30.35","334","0.1","1.2","0.00","0.00"
"05:44:57","48.6","47","94","30.35","334","0","1.2","0.00","0.00"
"05:49:59","48.5","46.9","94","30.35","334","0","0","0.00","0.00"
"05:54:57","48.4","46.8","94","30.35","334","0","0","0.00","0.00"
"05:59:58","48.3","46.7","94","30.35","334","0","0","0.00","0.00"
"06:04:57","48.2","46.6","94","30.35","334","0","0","0.00","0.00"
"06:09:57","48.1","46.5","94","30.35","334","0","0","0.00","0.00"
"06:14:57","48.1","46.5","94","30.36","334","0","0","0.00","0.00"
"06:19:58","48","46.4","94","30.36","334","0","0","0.00","0.00"
"06:24:56","48","46.4","94","30.36","334","0","0","0.00","0.00"
"06:29:57","47.9","46.3","94","30.36","334","0","0","0.00","0.00"
"06:34:59","47.9","46.3","94","30.36","334","0","0","0.00","0.00"
"06:39:59","47.8","46.2","94","30.36","334","0","0","0.00","0.00"
"06:44:56","47.8","46.2","94.1","30.36","334","0","0","0.00","0.00"
"06:49:58","47.7","46.3","95","30.36","334","0","0","0.00","0.00"
"06:54:56","47.7","46.3","95","30.36","334","0","0","0.00","0.00"
"06:59:58","47.6","46.2","95","30.37","334","0","0","0.00","0.00"
"07:04:56","47.5","46.1","95","30.37","334","0","0","0.00","0.00"
"07:09:59","47.5","46.1","95","30.37","334","0","0","0.00","0.00"
"07:14:58","47.5","46.1","95","30.37","334","0","0","0.00","0.00"
"07:19:56","47.4","46","95","30.37","334","0","0","0.00","0.00"
"07:24:58","47.5","46.1","95","30.37","334","0.1","1.2","0.00","0.00"
"07:29:56","47.7","46.5","95.6","30.38","334","0.3","2.4","0.00","0.00"
"07:34:57","48","46.9","96","30.38","334","1.2","3.6","0.00","0.00"
"07:39:56","48.5","47.4","96","30.38","334","0.9","4.8","0.00","0.00"
"07:44:58","48.9","47.8","96","30.38","334","0.8","3.6","0.00","0.00"
"07:49:59","49.1","48","96","30.38","334","0.9","3.6","0.00","0.00"
"07:54:56","49.5","48.4","96","30.38","333","2","3.6","0.00","0.00"
"07:59:58","49.8","48.6","95.6","30.38","333","1.2","3.6","0.00","0.00"
"08:04:59","49.9","48.5","95","30.38","333","0.6","3.6","0.00","0.00"
"08:09:58","49.9","48.5","94.8","30.38","329","1.9","7.2","0.00","0.00"
"08:14:57","50.2","48.5","94","30.38","340","2.6","7.2","0.00","0.00"
"08:19:59","50.6","48.9","94","30.38","347","2","6","0.00","0.00"
"08:24:56","51.1","49.3","93.9","30.38","305","1.5","6","0.00","0.00"
"08:29:57","51.6","49.5","92.5","30.39","307","1.4","3.6","0.00","0.00"
"08:34:58","51.9","49.5","91.9","30.39","321","2","7.2","0.00","0.00"
"08:39:57","52.2","49.7","91","30.39","323","1.5","6","0.00","0.00"
"08:44:59","52.9","50","90","30.39","342","2.5","6","0.00","0.00"
"08:49:56","53.5","50.2","88.4","30.39","340","2.6","6","0.00","0.00"
"08:54:57","54.5","50.6","86.7","30.39","337","2.4","7.2","0.00","0.00"
"08:59:58","55.4","50.5","83.7","30.40","335","4.4","12","0.00","0.00"
"09:04:59","56.2","50.6","81.4","30.40","337","2.1","7.2","0.00","0.00"
"09:09:58","56.9","50.6","79.3","30.40","337","4.2","17.3","0.00","0.00"
"09:14:57","57.4","50.6","77.8","30.40","342","3.7","9.6","0.00","0.00"
"09:19:58","57.8","50.3","76.1","30.40","331","4.4","15","0.00","0.00"
"09:24:59","58.1","50.2","75.1","30.40","319","4.5","14.4","0.00","0.00"
"09:29:56","58.4","50.1","74.2","30.40","342","4.5","16.1","0.00","0.00"
"09:34:56","58.8","50.4","73.8","30.40","334","3.5","12","0.00","0.00"
"09:39:59","59.2","50.2","72.2","30.40","343","4.2","15","0.00","0.00"
"09:44:57","59.3","50.2","71.7","30.40","336","3.2","10.8","0.00","0.00"
"09:49:58","59.2","49.8","71","30.40","343","4.8","14.4","0.00","0.00"
"09:54:59","59","50","72.1","30.40","329","2.1","11.5","0.00","0.00"
"09:59:56","59.6","50.6","72.2","30.40","341","3","8.4","0.00","0.00"
"10:04:57","60.1","51.1","72","30.40","344","2.7","8.4","0.00","0.00"
"10:09:56","60.6","51.2","71.3","30.40","345","2.3","8.4","0.00","0.00"
"10:14:59","61.1","51.3","70.3","30.40","356","5","20.4","0.00","0.00"
"10:19:57","61.2","50.5","67.7","30.40","331","2.9","13.2","0.00","0.00"
"10:24:58","61.4","50.8","68.2","30.40","350","4.8","19.6","0.00","0.00"
"10:29:59","61.7","50.3","66.4","30.40","342","5.6","19.6","0.00","0.00"
"10:34:56","61.8","50.5","66.7","30.40","350","3.4","16.1","0.00","0.00"
"10:39:58","62.1","50.6","65.9","30.40","6","3.1","10.4","0.00","0.00"
"10:44:59","62.5","51.4","66.9","30.40","2","2.4","7.2","0.00","0.00"
"10:49:56","63","51.8","66.7","30.40","346","3.1","14.4","0.00","0.00"
"10:54:57","63.2","51.3","65.2","30.40","314","3.5","15","0.00","0.00"
"10:59:58","63.3","51.1","64.6","30.40","340","2.2","6","0.00","0.00"
"11:04:59","63.2","51.2","64.9","30.39","245","2.9","13.2","0.00","0.00"
"11:09:58","63.1","51","64.5","30.39","356","3.6","12.7","0.00","0.00"
"11:14:57","63","50.9","64.7","30.39","336","5.9","18.4","0.00","0.00"
"11:19:58","63","51","65","30.39","330","4.3","19.6","0.00","0.00"
"11:24:59","63.4","51.4","65.1","30.39","349","2.6","8.4","0.00","0.00"
"11:29:56","63.8","51.5","64.1","30.39","3","2.8","12","0.00","0.00"
"11:34:58","64.1","52","64.9","30.39","325","2.9","13.2","0.00","0.00"
"11:39:57","64.2","51.5","63.4","30.39","347","3.2","10.8","0.00","0.00"
"11:44:58","64.2","52","64.5","30.39","331","3.2","12","0.00","0.00"
"11:49:59","64.2","51.6","63.5","30.39","333","6.5","16.1","0.00","0.00"
"11:54:56","64.1","51.2","63","30.39","341","5.3","18.4","0.00","0.00"
"11:59:58","64.3","51.9","63.9","30.39","340","3.1","16.1","0.00","0.00"
"12:04:59","64.7","51.8","63","30.39","5","5.7","19.6","0.00","0.00"
"12:09:58","64.4","51.3","62.6","30.39","341","6.2","15","0.00","0.00"
"12:14:58","64.2","51.5","63.4","30.39","344","5.7","17.3","0.00","0.00"
"12:19:59","64.4","52.2","64.4","30.38","341","3.7","13.2","0.00","0.00"
"12:24:56","64.9","51.9","62.6","30.38","313","3.9","17.3","0.00","0.00"
"12:29:56","65","52","62.6","30.38","10","2.9","10.8","0.00","0.00"
"12:34:57","65.2","52.1","62.7","30.38","330","4","15","0.00","0.00"
"12:39:56","65.6","52.5","62.6","30.38","341","3.5","18","0.00","0.00"
"12:44:58","65.4","51.3","60.4","30.38","345","4.5","18.4","0.00","0.00"
"12:49:59","65.1","51.8","62","30.38","335","4.6","13.2","0.00","0.00"
"12:54:56","65.5","51.8","61.3","30.38","308","4.9","18","0.00","0.00"
"12:59:58","65.4","51.4","60.7","30.38","10","4.5","19.6","0.00","0.00"
"13:04:56","65.5","52.5","62.9","30.38","350","3.7","12","0.00","0.00"
"13:09:58","66.1","52.2","60.9","30.38","339","5.4","16.1","0.00","0.00"
"13:14:59","66.3","51.5","58.9","30.38","351","4.7","15","0.00","0.00"
"13:19:56","66.5","52.5","60.7","30.37","346","3.2","15","0.00","0.00"
"13:24:57","66.8","51.5","57.9","30.37","327","3.7","15","0.00","0.00"
"13:29:58","66.9","52.2","59.1","30.37","322","2.5","8.4","0.00","0.00"
"13:34:56","67","51.7","57.9","30.36","334","5.8","17.3","0.00","0.00"
"13:39:59","66.9","52.1","59.1","30.36","306","2.6","12","0.00","0.00"
"13:44:57","67.1","53","60.4","30.36","320","1.6","7.2","0.00","0.00"
"13:49:58","67.6","52.4","58.3","30.36","1","4.5","12","0.00","0.00"
"13:54:59","67.5","51.6","56.8","30.36","1","4.6","13.2","0.00","0.00"
"13:59:56","67.1","50.9","56","30.36","342","7","20.7","0.00","0.00"
"14:04:58","66.9","50.9","56.5","30.36","344","6.7","18.4","0.00","0.00"
"14:09:56","67.1","52.1","58.5","30.36","356","2.7","10.8","0.00","0.00"
"14:14:59","67.4","52","57.9","30.36","307","2.5","8.4","0.00","0.00"
"14:19:56","67.5","51.3","56.3","30.35","303","1","8.1","0.00","0.00"
"14:24:58","67.7","52.6","58.4","30.35","304","4.2","21.9","0.00","0.00"
"14:29:58","67.8","51.4","55.8","30.35","332","7.5","21.9","0.00","0.00"
"14:34:59","67.9","51.6","55.9","30.33","333","3.7","17.3","0.00","0.00"
"14:39:58","67.9","52.2","57.2","30.33","352","3.5","17.3","0.00","0.00"
"14:44:56","68.2","51.9","56.1","30.33","12","2.8","13.2","0.00","0.00"
"14:49:57","68.4","51.7","55.3","30.33","346","5.4","13.2","0.00","0.00"
"14:54:58","68.7","52.4","55.9","30.33","332","3.7","13.2","0.00","0.00"
"14:59:59","68.8","52.2","55.4","30.33","340","2.3","10.4","0.00","0.00"
"15:04:57","68.4","52","55.8","30.33","330","4.6","15","0.00","0.00"
"15:09:56","68.3","52.4","56.7","30.33","351","2.2","13.2","0.00","0.00"
"15:14:59","68.1","51.8","56.1","30.33","77","2","7.2","0.00","0.00"
"15:19:56","67.8","51.9","57","30.33","26","1.9","7.2","0.00","0.00"
"15:24:57","67.4","51.2","56.1","30.33","38","3.3","13.2","0.00","0.00"
"15:29:59","67.4","52","57.7","30.33","17","1.5","12.7","0.00","0.00"
"15:34:56","67.8","52.6","58.4","30.33","8","2","10.8","0.00","0.00"
"15:39:59","68","51.7","55.9","30.33","331","3","10.4","0.00","0.00"
"15:44:57","68.6","52.6","56.7","30.33","333","3.3","15","0.00","0.00"
"15:49:58","68.8","52.3","55.7","30.33","356","2.5","15","0.00","0.00"
"15:54:59","68.6","51.9","55.2","30.33","326","2","8.4","0.00","0.00"
"15:59:57","68.1","51.8","56","30.33","343","3.1","7.2","0.00","0.00"
"16:04:58","68.1","51.8","56","30.33","344","4.9","13.2","0.00","0.00"
"16:09:57","68.2","52","56.2","30.33","355","3.2","13.2","0.00","0.00"
"16:14:56","68.4","52","55.7","30.33","28","1.8","6","0.00","0.00"
"16:19:57","68","51.2","55","30.33","351","2.2","8.4","0.00","0.00"
"16:24:58","67.8","51.6","56.1","30.33","326","2.1","6","0.00","0.00"
"16:29:59","68","51.7","56.1","30.33","353","2.1","6","0.00","0.00"
"16:34:56","68","51.2","55.1","30.33","337","3.1","10.8","0.00","0.00"
"16:39:59","68","51.6","55.8","30.33","359","1.7","6.9","0.00","0.00"
"16:44:57","68","51.3","55.1","30.33","333","3.7","13.2","0.00","0.00"
"16:49:58","67.8","51.3","55.7","30.33","347","1.6","6","0.00","0.00"
"16:54:59","67.6","51.1","55.7","30.33","17","1.3","6","0.00","0.00"
"16:59:57","67.3","51.3","56.3","30.33","348","1.9","8.4","0.00","0.00"
"17:04:59","67.3","51.5","56.8","30.33","336","2.1","6","0.00","0.00"
"17:09:57","67.4","51.4","56.3","30.33","354","1.5","9.6","0.00","0.00"
"17:14:57","67.6","51.7","56.8","30.33","337","2.9","12","0.00","0.00"
"17:19:58","67.7","52","57.1","30.33","328","2.4","7.2","0.00","0.00"
"17:24:59","67.7","51.4","56.2","30.33","346","2","4.8","0.00","0.00"
"17:29:57","67.5","51.9","57.3","30.33","352","1.4","6","0.00","0.00"
"17:34:58","67.3","51.7","57.5","30.33","334","1.4","10.8","0.00","0.00"
"17:39:57","66.9","51.6","58","30.33","344","2.3","10.4","0.00","0.00"
"17:44:59","66.4","50.9","57.5","30.33","349","3.4","12","0.00","0.00"
"17:49:56","65.7","50.8","58.6","30.33","328","1.8","4.8","0.00","0.00"
"17:54:57","65.2","50.8","59.5","30.33","321","1.5","4.8","0.00","0.00"
"17:59:59","64.7","50.6","60.2","30.33","333","1.6","6","0.00","0.00"
"18:04:56","64.3","50.4","60.5","30.33","325","1.6","4.8","0.00","0.00"
"18:09:59","63.8","50.1","61","30.33","331","1","4.6","0.00","0.00"
"18:14:58","63.4","50.3","62.5","30.33","328","1.9","6","0.00","0.00"
"18:19:59","63","49.9","62.5","30.32","325","2.7","7.2","0.00","0.00"
"18:24:56","62.6","49.8","63","30.32","336","2.5","7.2","0.00","0.00"
"18:29:58","62.3","49.7","63.4","30.32","331","2.2","7.2","0.00","0.00"
"18:34:59","62.1","49.8","64","30.32","330","1.9","4.8","0.00","0.00"
"18:39:58","61.7","49.6","64.3","30.32","328","1.9","4.8","0.00","0.00"
"18:44:56","61.5","49.7","65.3","30.32","327","1.6","4.8","0.00","0.00"
"18:49:58","61.2","49.6","65.8","30.32","330","2.6","4.8","0.00","0.00"
"18:54:59","60.9","49.6","66.3","30.32","336","1.4","4.8","0.00","0.00"
"18:59:57","60.6","49.5","66.6","30.32","341","1.9","6","0.00","0.00"
"19:04:59","60.4","49.4","67","30.32","342","2","4.8","0.00","0.00"
"19:09:58","60.2","49.5","67.8","30.32","342","1.6","3.6","0.00","0.00"
"19:14:58","60","49.4","68","30.32","342","0.2","2.3","0.00","0.00"
"19:19:56","59.7","49.4","68.6","30.32","342","0.6","3.6","0.00","0.00"
"19:24:58","59.5","49.3","69","30.32","342","0","1.2","0.00","0.00"
"19:29:56","59.2","49.3","69.8","30.32","342","0","0","0.00","0.00"
"19:34:59","58.8","49.4","70.8","30.32","342","0.1","2.4","0.00","0.00"
"19:39:58","58.5","49.5","72","30.32","342","1.2","3.6","0.00","0.00"
"19:44:56","58.1","49.5","72.8","30.32","342","0.2","2.3","0.00","0.00"
"19:49:59","57.8","49.6","74","30.32","342","0.9","2.4","0.00","0.00"
"19:54:57","57.5","49.4","74.2","30.32","342","1.2","3.6","0.00","0.00"
"19:59:58","57.3","49.1","74","30.32","342","1.4","3.6","0.00","0.00"
"20:04:56","57.2","49","74","30.32","342","1.1","3.6","0.00","0.00"
"20:09:59","57.1","48.9","74","30.32","338","0.8","4.8","0.00","0.00"
"20:14:58","57.1","48.9","74","30.32","338","1.3","3.6","0.00","0.00"
"20:19:56","57","49","74.5","30.32","338","1","3.6","0.00","0.00"
"20:24:57","56.9","49.1","75","30.32","338","0.6","3.6","0.00","0.00"
"20:29:59","56.7","48.9","75","30.32","338","0.1","1.2","0.00","0.00"
"20:34:57","56.6","48.9","75.6","30.32","338","0.2","3.6","0.00","0.00"
"20:39:57","56.3","48.8","76","30.32","338","0.6","3.6","0.00","0.00"
"20:44:59","56.3","48.8","76","30.32","338","0.1","1.2","0.00","0.00"
"20:49:56","56.2","48.8","76.4","30.32","338","0.5","4.8","0.00","0.00"
"20:54:58","55.9","48.9","77.5","30.32","338","1","3.6","0.00","0.00"
"20:59:59","55.8","48.7","77","30.32","338","1","3.6","0.00","0.00"
"21:04:57","55.8","48.7","77","30.32","332","0.8","4.8","0.00","0.00"
"21:09:56","55.9","48.8","77","30.32","340","0.8","3.6","0.00","0.00"
"21:14:55","55.9","48.8","77","30.33","350","1.8","6","0.00","0.00"
"21:19:57","55.9","48.5","76.2","30.33","347","1.2","3.6","0.00","0.00"
"21:24:59","56","48.5","76","30.33","347","0.7","3.6","0.00","0.00"
"21:29:56","56","48.7","76.5","30.33","347","0.5","3.6","0.00","0.00"
"21:34:58","55.9","48.7","76.8","30.33","347","0.8","2.4","0.00","0.00"
"21:39:58","55.8","48.7","76.8","30.33","346","1.1","3.6","0.00","0.00"
"21:44:56","55.8","48.6","76.7","30.33","346","1","4.8","0.00","0.00"
"21:49:58","55.8","48.4","76.2","30.33","346","0.6","3.5","0.00","0.00"
"21:54:56","55.8","48.6","76.9","30.33","346","0.8","2.4","0.00","0.00"
"21:59:58","55.7","48.6","77","30.33","346","1.4","4.8","0.00","0.00"
"22:04:59","55.6","48.5","77","30.33","345","0.9","3.6","0.00","0.00"
"22:09:58","55.5","48.4","77","30.33","345","2.1","7.2","0.00","0.00"
"22:14:58","55.4","48.3","77","30.33","344","2.2","7.2","0.00","0.00"
"22:19:59","55.4","48.3","77","30.33","333","1.5","4.8","0.00","0.00"
"22:24:57","55.3","48.2","77","30.33","328","2","8.4","0.00","0.00"
"22:29:58","55.3","48.2","77","30.33","339","1.6","8.1","0.00","0.00"
"22:34:59","55.3","48.2","77","30.32","338","1.4","7.2","0.00","0.00"
"22:39:59","55.2","48.3","77.5","30.32","345","1.8","6.9","0.00","0.00"
"22:44:57","55.1","48.4","78","30.32","346","1.4","4.8","0.00","0.00"
"22:49:58","54.9","48.2","78","30.32","346","2","6","0.00","0.00"
"22:54:56","54.7","48","78","30.32","346","1.4","4.8","0.00","0.00"
"22:59:57","54.6","48.1","78.5","30.32","347","1.4","4.8","0.00","0.00"
"23:04:59","54.5","48.1","79","30.32","347","0.3","2.4","0.00","0.00"
"23:09:59","54.4","48","79","30.32","346","1.1","3.6","0.00","0.00"
"23:14:59","54.4","48","79","30.32","345","2.3","7.2","0.00","0.00"
"23:19:56","54.3","47.9","79","30.32","334","1.2","3.6","0.00","0.00"
"23:24:58","54.2","47.7","78.7","30.32","331","1","4.8","0.00","0.00"
"23:29:59","54.1","47.6","78.6","30.32","330","0.4","3.6","0.00","0.00"
"23:34:57","54.1","47.7","79","30.32","338","1","6","0.00","0.00"
"23:39:57","53.9","47.5","79","30.32","337","1.1","4.8","0.00","0.00"
"23:44:55","53.7","47.5","79.5","30.33","331","0.8","3.6","0.00","0.00"
